Location: Az?znagar
(16.8373°N, 80.5091°E)
Time: 13:59:07
(UTC+00:00)

CZ-4C R/B - Pass Details

Date: 05 July 2022
Orbit: 395 x 462 km, 97.7° (Epoch: 14 August)

Event Time Altitude Azimuth Distance (km) Brightness Sun altitude
Rises 14:19:03 0° 354° (N) 2,453 7.2 -14.4°
Reaches altitude 10° 14:21:17 10° 341° (NNW) 1,590 6.4 -14.9°
Maximum altitude 14:24:09 26° 284° (WNW) 947 5.4 -15.4°
Drops below altitude 10° 14:27:04 10° 226° (SW) 1,606 5.9 -16.0°
Sets 14:29:20 0° 213° (SSW) 2,483 6.7 -16.5°
